Regional Weather Roundup
Issued by NWS

Home | Current Version | Previous Version | Graphics & Text | Print | Product List | Glossary On
Versions: 1 2 3 4 5 6 7 8 9 10 11 12 13 14 15 16 17 18 19 20 21 22 23 24 25 26 27 28 29 30 31 32 33 34 35 36 37 38 39 40 41 42 43 44 45 46 47 48 49 50
000
ASUS43 KLSX 270707
RWRMO

WEATHER SUMMARY FOR MISSOURI
NATIONAL WEATHER SERVICE SPRINGFIELD MO
200 AM CDT MON MAR 27 2017

NOTE: "FAIR" INDICATES FEW OR NO CLOUDS BELOW 12,000 FEET WITH NO
       SIGNIFICANT WEATHER AND/OR OBSTRUCTIONS TO VISIBILITY.
       CURRENT SKY AND/OR WEATHER CONDITIONS ARE NOT AVAILABLE FOR
       CHILLICOTHE AND FARMINGTON.

MOZ001>031-035>038-043-044-053-054-270800-
...NORTHERN AND WESTERN MISSOURI...

CITY           SKY/WX    TMP DP  RH WIND       PRES   REMARKS
KANSAS CTY INT RAIN      46  45  96 E9        29.90F FOG
KANSAS C DTWN  HVY RAIN  48  45  89 NE8       29.90S FOG
LEE`S SUMMIT   LGT RAIN  48  46  93 N8        29.90R
ST JOSEPH      LGT RAIN  46  45  96 N5        29.91F
CHILLICOTHE      N/A     48  44  86 CALM      29.93F
KIRKSVILLE     CLOUDY    47  44  90 N5        29.93S

$$
MOZ066>068-077>081-088>096-101>105-270800-
...SOUTHWEST MISSOURI...

CITY           SKY/WX    TMP DP  RH WIND       PRES   REMARKS
SPRINGFIELD    LGT RAIN  56  54  93 E14       29.78F
JOPLIN         HVY RAIN  57  56  96 W8        29.83R FOG
BRANSON          N/A     54  54 100 E9        29.81F

$$
MOZ032>034-039>042-045>050-055>058-069>072-270800-
...CENTRAL MISSOURI...

CITY           SKY/WX    TMP DP  RH WIND       PRES   REMARKS
COLUMBIA       LGT RAIN  50  49  96 NE8       29.91F
JEFFERSON CITY CLOUDY    54  48  80 E6        29.89F
ROLLA          CLOUDY    53  50  89 E5        29.87F
SEDALIA        CLOUDY    51  49  92 E10       29.88F
WHITEMAN AFB   MOCLDY    49  49 100 E9        29.86F
WARRENSBURG    CLOUDY    48  46  93 NE8       29.87F
OSAGE BEACH    LGT RAIN N/A N/A N/A CALM      29.90F

$$
MOZ051-052-059>065-270800-
...EAST CENTRAL MISSOURI...

CITY           SKY/WX    TMP DP  RH WIND       PRES   REMARKS
ST LOUIS INTL  CLOUDY    53  48  83 NE3       29.93F
SPIRIT OF STL  PTCLDY    50  49  96 CALM      29.92F
ST CHARLES     CLOUDY    51  49  92 CALM      29.93F

$$
MOZ072>076-082>087-097>100-106>115-270800-
...SOUTH CENTRAL AND SOUTHEAST MISSOURI...

CITY           SKY/WX    TMP DP  RH WIND       PRES   REMARKS
CAPE GIRARDEAU MOCLDY    50  47  89 E6        29.93F
FARMINGTON     PTCLDY    52  48  86 SE3       29.92F
POPLAR BLUFF   PTCLDY    53  52  96 E3        29.89F
WEST PLAINS    CLOUDY    57  50  77 E6        29.85F

$$



USA.gov is the U.S. government's official web portal to all federal, state and local government web resources and services.